Location: *
(49.9853°N, 3.5569°E)
Time: 18:57:44
(UTC+00:00)

SJ-6B - Pass Details

Date: 22 September 2019
Orbit: 509 x 583 km, 97.6° (Epoch: 19 October)

Event Time Altitude Azimuth Distance (km) Brightness Sun altitude
Exits shadow 18:10:48 - 124° (ESE) 2,491 5.6 -5.0°
Reaches altitude 10° 18:12:33 10° 112° (ESE) 1,889 4.9 -5.3°
Maximum altitude 18:15:38 21° 63° (ENE) 1,322 4.3 -5.8°
Drops below altitude 10° 18:18:40 10° 14° (NNE) 1,875 5.5 -6.3°
Sets 18:21:11 0° 359° (N) 2,764 6.5 -6.7°
